Regional Weather Roundup
Issued by NWS

Home | Current Version | Previous Version | Text Only | Print | Product List | Glossary On
Versions: 1 2 3 4 5 6 7 8 9 10 11 12 13 14 15 16 17 18 19 20 21 22 23 24 25 26 27 28 29 30 31 32 33 34 35 36 37 38 39 40 41 42 43 44 45 46 47 48 49 50
000
ASUS44 KJAN 311103
RWRMS

MISSISSIPPI HOURLY WEATHER ROUNDUP
NATIONAL WEATHER SERVICE JACKSON MS
600 AM CDT FRI JUL 31 2015

NOTE: "FAIR: INDICATES FEW OR NO CLOUDS BELOW 12,000 FEET WITH NO
SIGNIFICANT WEATHER AND/OR OBSTRUCTIONS TO VISIBILITY.

MSZ001>002-007>008-010>013-018>021-025>028-034>036-311200-
NORTHWEST MISSISSIPPI

CITY           SKY/WX    TMP DP  RH WIND       PRES   REMARKS
CLARKSDALE     FAIR      66  66 100 N7        30.08S
CLEVELAND      FAIR      68  67  96 NE6       30.05S
GREENWOOD      PTCLDY    65  62  90 N6        30.05R
GREENVILLE     PTCLDY    69  66  90 NE6       30.05R
OLIVE BRANCH     N/A     66  66 100 N5        30.10R
OXFORD         FAIR      63  61  94 CALM      30.10R
TUNICA         SUNNY     68  64  88 N5        30.09S
$$

MSZ003>006-009-014>017-022>024-029>033-037>039-311200-
NORTHEAST MISSISSIPPI

CITY           SKY/WX    TMP DP  RH WIND       PRES   REMARKS
COLUMBUS AFB   NOT AVBL
CORINTH        FAIR      64  61  88 CALM      30.07R
GOLDN TRIANGLE CLEAR     66  61  82 N5        30.02R
STARKVILLE     FAIR      64  63  94 CALM      30.04R
TUPELO         CLEAR     67  62  84 NE8       30.06R
$$

MSZ040-058-311200-
CENTRAL MISSISSIPPI

CITY           SKY/WX    TMP DP  RH WIND       PRES   REMARKS
JACKSON INTL   CLEAR     74  65  73 N7        30.01R
JACKSON HAWKNS CLEAR     73  64  73 NE6       30.02R
MERIDIAN KEY   CLEAR     73  63  70 NE12      29.99R
MERIDIAN NAS   CLEAR     70  63  78 N6        30.00R
VICKSBURG      CLEAR     75  66  73 NE10      30.02R
$$

MSZ059>079-311200-
SOUTH MISSISSIPPI

CITY           SKY/WX    TMP DP  RH WIND       PRES   REMARKS
BROOKHAVEN       N/A     70  68  94 N6        30.02R
HATTIESBURG    CLEAR     74  69  85 NW6       29.97R
MCCOMB         PTCLDY    74  70  87 N7        29.99R
NATCHEZ        PTCLDY    73  70  88 N5        30.01S
PINE BELT      CLEAR     72  64  78 N9        29.99R
$$

MSZ080>082-311200-
COASTAL MISSISSIPPI

CITY           SKY/WX    TMP DP  RH WIND       PRES   REMARKS
BILOXI         NOT AVBL
PASCAGOULA     CLOUDY    75  73  93 N8        29.92R
GULFPORT       MOCLDY    77  70  79 N8        29.92R
$$


USA.gov is the U.S. government's official web portal to all federal, state and local government web resources and services.